Tracking 18840 objects as of 17-November-2017
HD Live streaming from Space Station
objects crossing your sky now

SL-12 DEB

Track SL-12 DEB now!
10-day predictions


NORAD ID: 42974
Int'l Code: 2010-041P
Perigee: 804.3 km
Apogee: 18,472.7 km
Inclination: 65.2 °
Period: 336.0 minutes
Semi major axis: 16009 km
RCS: Unknown
Launch date: September 2, 2010
Source: Commonwealth of Independent States (former USSR) (CIS)
Launch site: TYURATAM MISSILE AND SPACE COMPLEX (TTMTR)

Note: This is SATELLITE DEBRIS
aabbcc
Your satellite tracking list
Your tracking list is empty




NASA's NSSDC Master Catalog

Two Line Element Set (TLE):
1 42974U 10041P   17320.58236787 -.00000459 +00000-0 -79958-2 0  9991
2 42974 065.2023 152.4244 5518107 080.5507 334.9581 04.28585519003159
Source of the keplerian elements: AFSPC